Regional Weather Roundup
Issued by NWS

Home | Current Version | Previous Version | Graphics & Text | Print | Product List | Glossary On
Versions: 1 2 3 4 5 6 7 8 9 10 11 12 13 14 15 16 17 18 19 20 21 22 23 24 25 26 27 28 29 30 31 32 33 34 35 36 37 38 39 40 41 42 43 44 45 46 47 48 49 50
000
ASUS43 KIND 242309
RWRIN

WEATHER ROUNDUP FOR INDIANA
NATIONAL WEATHER SERVICE INDIANAPOLIS IN
600 PM EST SAT JAN 24 2015

NOTE: "FAIR" INDICATES FEW OR NO CLOUDS BELOW 12,000 FEET WITH NO
SIGNIFICANT WEATHER AND/OR OBSTRUCTIONS TO VISIBILITY.

* - STATION DOES NOT REPORT WEATHER SUCH AS PRECIPITATION OR FOG.

+ - STATION NOT QUALITY CONTROLLED BY THE NATIONAL WEATHER SERVICE.
    USE DATA WITH CAUTION...ESPECIALLY DEWPOINT AND RELATIVE
    HUMIDITY OBSERVATIONS.

INZ001>003-010>013-019-020-250000-
NORTHWEST INDIANA

CITY           SKY/WX    TMP DP  RH WIND       PRES   REMARKS
GARY /AIRPORT/ MOCLDY    41  30  65 W13       29.66R
KNOX *+        CLOUDY    37  24  59 SW6       29.66S
LA PORTE +     MOCLDY    40  32  73 W6        29.66R
MICHIGAN CITY+ CLOUDY    37  28  70 W5        29.67R
MONTICELLO +   CLOUDY    39  35  86 SW7       29.68S
RENSSELAER +   CLOUDY    39  37  93 SW8       29.68S
VALPARAISO     CLOUDY    39  32  76 SW7       29.66S

$$

LMZ046-743>745-250000-
SOUTHERN LAKE MICHIGAN

STATION/POSITION TIME  TEMP WIND        PRES
                       AIR  DIR/SP/G
                 (UTC) (F)  (DEG/KT/KT) (MB)
MICHIGAN CITY    2300   36  220/  9/ 10   N/A

$$

INZ004-005-014>016-021>024-250000-
NORTH CENTRAL INDIANA

CITY           SKY/WX    TMP DP  RH WIND       PRES   REMARKS
ELKHART        CLOUDY    37  28  70 W5        29.65R
GOSHEN         CLOUDY    37  30  75 SW5       29.65R
LOGANSPORT +   CLOUDY    36  34  93 SW6       29.69S
PERU/GRISSOM   CLOUDY    37  34  87 W9        29.69R
ROCHESTER +    MOCLDY    41  36  81 W7        29.68S
SOUTH BEND     CLOUDY    38  30  73 SW5       29.65S
WARSAW +       CLOUDY    37  32  81 W6        29.66R

$$

INZ006>009-017-018-025>027-250000-
NORTHEAST INDIANA

CITY           SKY/WX    TMP DP  RH WIND       PRES   REMARKS
ANGOLA *+      CLOUDY    37  25  60 W3        29.64R
AUBURN +       CLOUDY    36  30  80 W5        29.67R
FORT WAYNE     CLOUDY    36  31  82 SW8       29.69R
HUNTINGTON +   CLOUDY    37  29  74 CALM      29.68R

$$

INZ028-029-035-036-043>045-051>053-250000-
WEST CENTRAL INDIANA

CITY           SKY/WX    TMP DP  RH WIND       PRES   REMARKS
GREENCASTLE +  CLEAR     39  28  65 W5        29.73R
LAFAYETTE      CLOUDY    41  34  76 W7        29.70R
TERRE HAUTE    CLEAR     41  32  70 SW8       29.75R

$$

INZ030>032-037>040-046>048-054>057-064-065-250000-
CENTRAL INDIANA

CITY           SKY/WX    TMP DP  RH WIND       PRES   REMARKS
CP ATTERBURY + CLEAR     37  28  70 SW5       29.75R
COLUMBUS       CLEAR     36  27  69 W9        29.75R
GREENWOOD *+   CLEAR     37  27  65 SW6       29.74
INDIANAPOLIS   PTCLDY    35  29  78 SW10      29.72R WCI  27
-EAGLE CREEK   CLEAR     39  30  70 SW5       29.72R
KOKOMO *+      CLOUDY    37  32  81 W9        29.70R
MARION +       CLOUDY    36  32  86 W3        29.71R
MT COMFORT *+  CLEAR     36  25  64 SW8       29.73R
SHELBYVILLE    CLEAR     36  29  75 SW8       29.73R
ZIONSVILLE +   PTCLDY    38  31  74 SW7       29.72R

$$

INZ033-034-041-042-049-050-058-059-250000-
EAST CENTRAL INDIANA

CITY           SKY/WX    TMP DP  RH WIND       PRES   REMARKS
MUNCIE         PTCLDY    37  30  75 W6        29.70R

$$

INZ060-061-067>069-081>083-085>088-250000-
SOUTHWEST INDIANA

CITY           SKY/WX    TMP DP  RH WIND       PRES   REMARKS
EVANSVILLE     CLEAR     46  32  58 SW8       29.81S
HUNTINGBURG *+ CLEAR     43  30  61 W7        29.80S
WASHINGTON +   CLEAR     40  30  66 SW7       29.78R

$$

INZ062-063-066-070>080-084-089>092-250000-
SOUTH CENTRAL AND SOUTHEAST INDIANA

CITY           SKY/WX    TMP DP  RH WIND       PRES   REMARKS
BLOOMINGTON    CLEAR     40  31  70 SW10      29.75R
SEYMOUR +      CLEAR     36  28  75 SW5       29.77

$$



USA.gov is the U.S. government's official web portal to all federal, state and local government web resources and services.